This demonstration page uses our WeatherBlox Daily Observations layout. Learn more.

39.01783, -85.05884

Hourly Observations for November 21, 2020

Temp ( °F °C ) Dew Point ( °F °C ) Humidity (%) Winds ( mph kmh ) Pressure ( in mb ) Visibility ( mi km ) Precip ( " mm )
12:52 am 00:52 Cloudy with Light Rain 56 13.3 54 12.2 93 93 WNW 6 9 30.37 1029 5 8.0467 0.001 0.001
1:21 am 01:21 Cloudy with Mist and Fog 55 12.8 53 11.7 93 93 W 5 7 30.38 1029 0.75 1.207005 0.01 0.254
1:52 am 01:52 Cloudy with Drizzle 55 12.8 54 12.2 96 96 Calm 30.37 1029 0.75 1.207005 0.01 0.254
2:44 am 02:44 Cloudy with Drizzle 55 12.8 53 11.7 93 93 Calm 30.39 1029 0.75 1.207005 0.001 0.001
2:52 am 02:52 Cloudy with Drizzle 55 12.8 53 11.7 93 93 Calm 30.37 1029 0.75 1.207005 0.001 0.001
3:15 am 03:15 Cloudy with Drizzle 55 12.8 53 11.7 93 93 NNW 5 7 30.39 1029 0.75 1.207005 0.01 0.254
3:22 am 03:22 Cloudy with Drizzle 54 12.2 53 11.7 97 97 N 3 6 30.39 1029 0.25 0.402335 0.01 0.254
3:52 am 03:52 Mostly Cloudy with Drizzle 54 12.2 53 11.7 97 97 NNW 5 7 30.38 1029 0.25 0.402335 0.01 0.254
4:18 am 04:18 Cloudy with Drizzle 54 12.2 53 11.7 97 97 N 3 6 30.38 1029 0.75 1.207005 0.001 0.001
4:52 am 04:52 Cloudy with Light Rain 54 12.2 52 11.1 93 93 N 6 9 30.37 1029 2 3.21868 0.01 0.254
5:52 am 05:52 Cloudy with Light Rain 53 11.7 51 10.6 93 93 NNE 10 17 30.39 1029 2 3.21868 0.01 0.254
6:52 am 06:52 Cloudy with Light Rain 50 10 48 8.9 93 93 N 14 22 30.41 1030 2 3.21868 0.02 0.508
7:52 am 07:52 Cloudy with Light Rain 47 8.3 45 7.2 93 93 NNE 12 19 30.43 1031 2 3.21868 0.01 0.254
8:18 am 08:18 Cloudy with Light Rain 46 7.8 44 6.7 93 93 NNE 10 17 30.46 1031 1.75 2.816345 0.02 0.508
8:52 am 08:52 Cloudy with Light Rain 46 7.8 44 6.7 93 93 NNE 14 22 30.45 1031 1.75 2.816345 0.03 0.762
9:28 am 09:28 Cloudy with Light Rain 45 7.2 42 5.6 90 90 NNE 14 22 30.48 1032 2.5 4.02335 0.001 0.001
9:52 am 09:52 Cloudy with Mist and Fog 45 7.2 42 5.6 90 90 NNE 13 20 30.46 1032 2.5 4.02335 0.01 0.254
10:23 am 10:23 Cloudy with Mist and Fog 46 7.8 43 6.1 89 89 NNE 12 19 30.48 1032 3 4.82802 0 0
10:52 am 10:52 Cloudy 46 7.8 43 6.1 89 89 ENE 6 9 30.45 1031 10 16.0934 0 0
11:29 am 11:29 Cloudy 47 8.3 42 5.6 83 83 NNE 9 15 30.48 1032 10 16.0934 0 0
11:52 am 11:52 Cloudy 47 8.3 42 5.6 83 83 NE 9 15 30.45 1031 10 16.0934 0 0
12:52 pm 12:52 Cloudy 47 8.3 42 5.6 83 83 NNE 8 13 30.43 1031 10 16.0934 0 0
1:52 pm 13:52 Cloudy 47 8.3 42 5.6 83 83 ENE 6 9 30.41 1030 10 16.0934 0 0
2:52 pm 14:52 Cloudy 47 8.3 40 4.4 77 77 NNE 10 17 30.41 1030 10 16.0934 0 0
3:52 pm 15:52 Cloudy with Light Rain 47 8.3 40 4.4 77 77 NE 9 15 30.4 1029 10 16.0934 0.001 0.001
4:52 pm 16:52 Cloudy with Light Rain 47 8.3 41 5 80 80 NNE 9 15 30.4 1030 10 16.0934 0.001 0.001
5:52 pm 17:52 Cloudy 47 8.3 41 5 80 80 NE 9 15 30.4 1029 10 16.0934 0.001 0.001
6:52 pm 18:52 Cloudy 47 8.3 41 5 80 80 NE 9 15 30.39 1029 10 16.0934 0 0
7:52 pm 19:52 Cloudy 47 8.3 40 4.4 77 77 NE 10 17 30.37 1029 10 16.0934 0 0
8:52 pm 20:52 Cloudy 47 8.3 40 4.4 77 77 ENE 8 13 30.35 1028 10 16.0934 0 0
9:52 pm 21:52 Cloudy 46 7.8 41 5 83 83 ENE 10 17 30.34 1027 8 12.87472 0 0
10:45 pm 22:45 Cloudy 47 8.3 42 5.6 83 83 NE 13 20 30.34 1027 7 11.26538 0 0
10:52 pm 22:52 Cloudy 47 8.3 42 5.6 83 83 ENE 10 17 30.32 1027 7 11.26538 0 0
11:52 pm 23:52 Cloudy with Light Rain 47 8.3 42 5.6 83 83 NE 12 19 30.29 1026 8 12.87472 0.001 0.001

Powered by AerisWeather